Regional Weather Roundup
Issued by NWS Northern Indiana

Home | Current Version | Previous Version | Graphics & Text | Print | Product List | Glossary On
Versions: 1 2 3 4 5 6 7 8 9 10 11 12 13 14 15 16 17 18 19 20 21 22 23 24 25 26 27 28 29 30 31 32 33 34 35 36 37 38 39 40 41 42 43 44 45 46 47 48 49 50
000
ASUS43 KIWX 310300
RWRIWX

KIWX WEATHER ROUNDUP
NATIONAL WEATHER SERVICE NORTHERN INDIANA
1100 PM EDT TUE AUG 30 2016

NOTE: "FAIR" INDICATES FEW OR NO CLOUDS BELOW 12,000 FEET WITH NO
SIGNIFICANT WEATHER AND/OR OBSTRUCTIONS TO VISIBILITY.

* THESE STATIONS ARE NOT UNDER NWS QUALITY CONTROL. THEY ALSO MAY NOT
  REPORT WEATHER SUCH AS PRECIPITATION OR FOG.

INZ001>027-310400-
NORTHERN INDIANA

CITY           SKY/WX    TMP DP  RH WIND       PRES   REMARKS
GARY*          MOCLDY    72  72 100 CALM      30.06S
KNOX*          PTCLDY    70  55  60 CALM      30.06R
SOUTH BEND     MOCLDY    73  69  87 S5        30.07R
GOSHEN         MOCLDY    71  68  90 S5        30.07R
MONTICELLO*    PTCLDY    72  68  86 S3        30.06S
ANGOLA*        CLEAR     70  63  78 S3        30.08S
FORT WAYNE     CLOUDY    71  69  93 S6        30.08F
PERU/GRISSOM   PTCLDY    71  71 100 S7        30.07S

$$
INZ028>050-310400-
CENTRAL INDIANA

CITY           SKY/WX    TMP DP  RH WIND       PRES   REMARKS
LAFAYETTE      PTCLDY    72  71  97 CALM      30.06S
KOKOMO*        CLOUDY    70  70 100 S5        30.08S
MUNCIE*        CLOUDY    72  70  93 SE6       30.09F
INDIANAPOLIS   LGT RAIN  73  71  93 E7        30.08F

$$
MIZ043>046-050>051-056>058-064>065-071>073-077>080-310400-
SOUTHWEST LOWER MICHIGAN

CITY           SKY/WX    TMP DP  RH WIND       PRES   REMARKS
BATTLE CREEK   CLOUDY    68  68 100 SW6       30.07S
BENTON HARBOR  MOCLDY    73  71  93 CALM      30.05S FOG
COLDWATER*     CLOUDY    69  69 100 CALM      30.08R
HILLSDALE*     LGT RAIN  69  67  94 CALM      30.07S
HOLLAND        PTCLDY    72  70  93 NW3       30.06R
GRAND RAPIDS   CLOUDY    74  68  81 W5        30.06R
KALAMAZOO      PTCLDY    71  67  87 S3        30.07R
STURGIS*       CLOUDY    70  68  92 S3        30.07R
THREE RIVERS*  FAIR      70  70  99 CALM      30.07S

$$
OHZ001>008-015>018-024>025-310400-
NORTHWEST OHIO

CITY           SKY/WX    TMP DP  RH WIND       PRES   REMARKS
DEFIANCE       MOCLDY    72  69  90 CALM      30.07F
FINDLAY        MOCLDY    74  70  87 W7        30.07S
TOLEDO EXPRESS LGT RAIN  72  72 100 W8        30.06S
TOLEDO METCALF CLOUDY    75  71  87 MISG      30.07S
LIMA           RAIN      71  71 100 W5        30.09F

$$
AND FOR LAKE MICHIGAN COASTAL AND OPEN LAKE BUOY OBSERVATIONS

STATION/POSITION TEMP    WIND        PRES    VSBY  WAVE
                 AIR SEA DIR/SP/G                  HT/PER
                 (F)     (DEG/KT/KT) (MB)    (MI)  (FT/S)
CALUMET HARBOR    73                 1017.3R
MICHIGAN CITY     73     340/  3/  3   N/A
BURNS HARBOR      74      40/  1/  5 1017.9R
SAINT JOSEPH      74      40/  1/  6 1017.9R
SOUTH LAKE BUOY   74 75  220/  4/  4 1016.8          1
4 MI NW BRIDGMAN  75 76  350/  6/  6 1017.1R         0
MICHIGAN CITY     75 75   20/  2/  4   N/A           1

$$
&&




USA.gov is the U.S. government's official web portal to all federal, state and local government web resources and services.